Home > Weather > Vevey > Past weeks

Flag for Switzerland Past Weather in Vevey, Vaud, Switzerland — Yesterday and Last 2 Weeks

Now
65 °F

Mild.


Feels Like: 65 °F
Forecast: 62 / 87 °F
Wind: No wind

Location: Aigle

Current Time: Aug 24, 2016 at 11:44:44 PM

Latest Report: Aug 24, 2016 at 11:00 PM


Visibility: N/A

Pressure: 30.09 "Hg

Humidity: 94%

Dew Point: 63 °F

Location of VeveyLocation

Past Weather in Vevey — Graph

°F

Vevey Temperature Yesterday

Maximum temperature yesterday: 78 °F (at 6:00 PM)
Minimum temperature yesterday: 53 °F (at 7:00 AM)
Average temperature yesterday: 65 °F

High & Low Weather Summary for the Past Weeks

 TemperatureHumidityPressure
High82 °F (Aug 17, 5:00 PM)97% (Aug 10, 3:00 AM)30.37 "Hg (Aug 10, 3:00 AM)
Low47 °F (Aug 11, 7:00 AM)34% (Aug 11, 5:00 PM)29.79 "Hg (Aug 17, 5:00 PM)
Average66 °F76%30.11 "Hg
* Reported Aug 9 10:00 PM — Aug 24 10:00 PM, Vevey, Weather by CustomWeather, © 2016

Note: Actual official high and low records may vary slightly from our data, if they occured in-between our weather recording intervals... More about our weather records

Advertising

Vevey Weather History for the Previous 24 Hours

Scroll right to see more
 ConditionsComfort  
Time TempWeatherWind HumidityBarometerVisibility
10:00 PM
Wed, Aug 24
66 °FMild.1 mph92%30.08 "HgN/A
9:00 PM69 °FMild.2 mph90%30.07 "HgN/A
8:00 PM71 °FSunny.No wind88%30.06 "Hg28 mi
7:00 PM80 °FWarm.1 mph57%30.03 "HgN/A
6:00 PM82 °FWarm.2 mph60%30.03 "HgN/A
5:00 PM82 °FWarm.3 mph58%30.06 "HgN/A
4:00 PM82 °FWarm.5 mph54%30.07 "HgN/A
3:00 PM80 °FWarm.3 mph56%30.09 "HgN/A
2:00 PM79 °FSunny.6 mph59%30.11 "Hg25 mi
1:00 PM77 °FWarm.6 mph62%30.13 "HgN/A
12:00 PM76 °FMild.3 mph62%30.15 "HgN/A
11:00 AM73 °FSunny.2 mph64%30.17 "Hg28 mi
10:00 AM70 °FMild.1 mph72%30.19 "HgN/A
9:00 AM67 °FMild.No wind88%30.22 "HgN/A
8:00 AM60 °FSunny.1 mph95%30.24 "Hg25 mi
7:00 AM56 °FCool.1 mph97%30.23 "HgN/A
6:00 AM56 °FCool.2 mph96%30.22 "HgN/A
5:00 AM57 °FClear.1 mph96%30.22 "Hg16 mi
4:00 AM58 °FCool.1 mph96%30.22 "HgN/A
3:00 AM59 °FCool.1 mph95%30.21 "HgN/A
2:00 AM60 °FCool.No wind96%30.21 "HgN/A
1:00 AM60 °FCool.No wind95%30.22 "HgN/A
12:00 AM62 °FCool.2 mph95%30.21 "HgN/A
11:00 PM
Tue, Aug 23
63 °FMild.2 mph94%30.20 "HgN/A
Weather by CustomWeather, © 2016

See weather overviewHow to use our weather pages